Time,TemperatureF,DewpointF,PressureIn,WindDirection,WindDirectionDegrees,WindSpeedMPH,WindSpeedGustMPH,Humidity,HourlyPrecipIn,Conditions,Clouds,dailyrainin,SoftwareType,DateUTC
2013-01-13 00:02:00,40.1,23.9,29.50,SSE,158,44.9,44.9,52,0.00,,,0.00,WeatherDisplay:10.37,2013-01-13 09:02:00,
2013-01-13 00:07:00,40.3,24.0,29.47,SSE,158,31.1,31.1,52,0.00,,,0.00,WeatherDisplay:10.37,2013-01-13 09:07:00,
2013-01-13 00:13:00,40.5,24.2,29.47,South,180,27.7,27.7,52,0.00,CLR,,0.00,WeatherDisplay:10.37,2013-01-13 09:13:00,
2013-01-13 00:18:00,40.3,24.0,29.47,SSW,202,34.5,34.5,52,0.00,CLR,,0.00,WeatherDisplay:10.37,2013-01-13 09:18:00,
2013-01-13 00:23:00,40.5,24.2,29.53,SSW,202,34.5,34.5,52,0.00,CLR,,0.00,WeatherDisplay:10.37,2013-01-13 09:23:00,
2013-01-13 00:28:00,40.5,24.2,29.53,SSE,158,34.5,34.5,52,0.00,,,0.00,WeatherDisplay:10.37,2013-01-13 09:28:00,
2013-01-13 00:33:00,40.5,24.2,29.53,SSE,158,41.4,41.4,52,0.00,,,0.00,WeatherDisplay:10.37,2013-01-13 09:33:00,
2013-01-13 00:38:00,40.3,24.0,29.53,SSE,158,43.7,43.7,52,0.00,CLR,,0.00,WeatherDisplay:10.37,2013-01-13 09:38:00,
2013-01-13 00:43:00,40.3,24.0,29.53,South,180,49.5,49.5,52,0.00,,,0.00,WeatherDisplay:10.37,2013-01-13 09:43:00,
2013-01-13 00:48:00,40.3,24.0,29.53,SSE,158,39.1,39.1,52,0.00,,,0.00,WeatherDisplay:10.37,2013-01-13 09:48:00,
2013-01-13 00:53:00,40.3,24.0,29.53,South,180,48.3,48.3,52,0.00,,,0.00,WeatherDisplay:10.37,2013-01-13 09:53:00,
2013-01-13 00:58:00,40.1,23.9,29.53,SE,135,34.5,34.5,52,0.00,CLR,,0.00,WeatherDisplay:10.37,2013-01-13 09:58:00,
2013-01-13 01:03:00,39.9,24.2,29.53,SSE,158,43.7,43.7,53,0.00,,,0.00,WeatherDisplay:10.37,2013-01-13 10:03:00,
2013-01-13 01:08:00,39.9,24.2,29.53,SSE,158,37.7,37.7,53,0.00,,,0.00,WeatherDisplay:10.37,2013-01-13 10:08:00,
2013-01-13 01:13:00,39.7,24.0,29.53,SSE,158,40.3,40.3,53,0.00,CLR,,0.00,WeatherDisplay:10.37,2013-01-13 10:13:00,
2013-01-13 01:18:00,39.7,24.0,29.53,ESE,112,36.8,36.8,53,0.00,,,0.00,WeatherDisplay:10.37,2013-01-13 10:18:00,
2013-01-13 01:23:00,39.7,24.0,29.53,SSW,202,32.2,32.2,53,0.00,CLR,,0.00,WeatherDisplay:10.37,2013-01-13 10:23:00,
2013-01-13 01:28:00,39.6,23.8,29.53,SSE,158,29.9,29.9,53,0.00,CLR,,0.00,WeatherDisplay:10.37,2013-01-13 10:28:00,
2013-01-13 01:33:00,39.7,24.0,29.53,South,180,44.9,44.9,53,0.00,CLR,,0.00,WeatherDisplay:10.37,2013-01-13 10:33:00,
2013-01-13 01:38:00,39.7,24.0,29.53,SSE,158,31.1,31.1,53,0.00,CLR,,0.00,WeatherDisplay:10.37,2013-01-13 10:38:00,
2013-01-13 01:43:00,39.9,24.2,29.53,SSE,158,42.6,42.6,53,0.00,,,0.00,WeatherDisplay:10.37,2013-01-13 10:43:00,
2013-01-13 01:48:00,40.1,24.3,29.53,SSW,202,44.9,44.9,53,0.00,,,0.00,WeatherDisplay:10.37,2013-01-13 10:48:00,
2013-01-13 01:53:00,40.3,24.5,29.53,South,180,36.8,36.8,53,0.00,CLR,,0.00,WeatherDisplay:10.37,2013-01-13 10:53:00,
2013-01-13 01:58:00,40.3,24.5,29.53,South,180,44.9,44.9,53,0.00,,,0.00,WeatherDisplay:10.37,2013-01-13 10:58:00,
2013-01-13 02:03:00,40.1,24.3,29.53,South,180,38.2,38.2,53,0.00,CLR,,0.00,WeatherDisplay:10.37,2013-01-13 11:03:00,
2013-01-13 02:08:00,40.3,24.5,29.53,South,180,35.7,35.7,53,0.00,CLR,,0.00,WeatherDisplay:10.37,2013-01-13 11:08:00,
2013-01-13 02:13:00,40.3,24.5,29.53,South,180,34.5,34.5,53,0.00,CLR,,0.00,WeatherDisplay:10.37,2013-01-13 11:13:00,
2013-01-13 02:18:00,40.5,24.7,29.53,South,180,29.9,29.9,53,0.00,CLR,,0.00,WeatherDisplay:10.37,2013-01-13 11:18:00,
2013-01-13 02:23:00,40.6,24.8,29.53,SE,135,34.5,34.5,53,0.00,CLR,,0.00,WeatherDisplay:10.37,2013-01-13 11:23:00,
2013-01-13 02:28:00,40.6,24.8,29.53,SSE,158,33.4,33.4,53,0.00,CLR,,0.00,WeatherDisplay:10.37,2013-01-13 11:28:00,
2013-01-13 02:33:00,40.6,24.8,29.53,SSE,158,35.7,35.7,53,0.00,CLR,,0.00,WeatherDisplay:10.37,2013-01-13 11:33:00,
2013-01-13 02:38:00,40.6,24.8,29.53,SSE,158,46.0,46.0,53,0.00,,,0.00,WeatherDisplay:10.37,2013-01-13 11:38:00,
2013-01-13 02:43:00,40.6,24.8,29.53,SSE,158,32.2,32.2,53,0.00,,,0.00,WeatherDisplay:10.37,2013-01-13 11:43:00,
2013-01-13 02:48:00,40.8,25.0,29.53,South,180,24.2,24.2,53,0.00,CLR,,0.00,WeatherDisplay:10.37,2013-01-13 11:48:00,
2013-01-13 02:53:00,41.2,24.9,29.56,South,180,24.2,24.2,52,0.00,CLR,,0.00,WeatherDisplay:10.37,2013-01-13 11:53:00,
2013-01-13 02:58:00,41.4,25.0,29.56,South,180,23.0,23.0,52,0.00,CLR,,0.00,WeatherDisplay:10.37,2013-01-13 11:58:00,
2013-01-13 03:03:00,41.5,25.2,29.56,SSE,158,27.6,27.6,52,0.00,CLR,,0.00,WeatherDisplay:10.37,2013-01-13 12:03:00,
2013-01-13 03:08:00,41.5,25.2,29.59,ESE,112,9.2,9.2,52,0.00,CLR,,0.00,WeatherDisplay:10.37,2013-01-13 12:08:00,
2013-01-13 03:13:00,41.5,25.2,29.59,ESE,112,17.3,17.3,52,0.00,CLR,,0.00,WeatherDisplay:10.37,2013-01-13 12:13:00,
2013-01-13 03:18:00,41.5,25.2,29.59,SSE,158,23.0,23.0,52,0.00,CLR,,0.00,WeatherDisplay:10.37,2013-01-13 12:18:00,
2013-01-13 03:23:00,41.2,25.3,29.59,SSW,202,21.9,21.9,53,0.00,CLR,,0.00,WeatherDisplay:10.37,2013-01-13 12:23:00,
2013-01-13 03:28:00,41.0,25.2,29.59,South,180,23.0,23.0,53,0.00,CLR,,0.00,WeatherDisplay:10.37,2013-01-13 12:28:00,
2013-01-13 03:33:00,40.6,25.3,29.59,SSW,202,25.3,25.3,54,0.00,CLR,,0.00,WeatherDisplay:10.37,2013-01-13 12:33:00,
2013-01-13 03:38:00,40.5,25.1,29.59,SE,135,10.4,10.4,54,0.00,CLR,,0.00,WeatherDisplay:10.37,2013-01-13 12:38:00,
2013-01-13 03:43:00,40.5,25.1,29.59,WSW,248,27.6,27.6,54,0.00,CLR,,0.00,WeatherDisplay:10.37,2013-01-13 12:43:00,
2013-01-13 03:48:00,40.6,25.3,29.59,SSW,202,23.0,23.0,54,0.00,CLR,,0.00,WeatherDisplay:10.37,2013-01-13 12:48:00,
2013-01-13 03:53:00,40.5,25.5,29.56,SE,135,12.1,12.1,55,0.00,CLR,,0.00,WeatherDisplay:10.37,2013-01-13 12:53:00,
2013-01-13 03:58:00,40.5,25.5,29.56,SSE,158,23.0,23.0,55,0.00,CLR,,0.00,WeatherDisplay:10.37,2013-01-13 12:58:00,
2013-01-13 04:03:00,40.5,25.5,29.56,South,180,27.6,27.6,55,0.00,CLR,,0.00,WeatherDisplay:10.37,2013-01-13 13:03:00,
2013-01-13 04:08:00,40.3,25.4,29.56,SSE,158,24.2,24.2,55,0.00,CLR,,0.00,WeatherDisplay:10.37,2013-01-13 13:08:00,
2013-01-13 04:13:00,40.6,25.7,29.56,SSE,158,31.7,31.7,55,0.00,CLR,,0.00,WeatherDisplay:10.37,2013-01-13 13:13:00,
2013-01-13 04:18:00,40.6,25.7,29.56,SSE,158,32.9,32.9,55,0.00,CLR,,0.00,WeatherDisplay:10.37,2013-01-13 13:18:00,
2013-01-13 04:23:00,40.8,25.4,29.59,South,180,29.9,29.9,54,0.00,CLR,,0.00,WeatherDisplay:10.37,2013-01-13 13:23:00,
2013-01-13 04:28:00,40.8,25.4,29.59,South,180,26.5,26.5,54,0.00,CLR,,0.00,WeatherDisplay:10.37,2013-01-13 13:28:00,
2013-01-13 04:33:00,40.8,25.9,29.59,South,180,17.3,17.3,55,0.00,CLR,,0.00,WeatherDisplay:10.37,2013-01-13 13:33:00,
2013-01-13 04:38:00,40.8,25.9,29.59,SSW,202,25.6,25.6,55,0.00,CLR,,0.00,WeatherDisplay:10.37,2013-01-13 13:38:00,
2013-01-13 04:43:00,41.0,25.6,29.59,SSE,158,20.7,20.7,54,0.00,CLR,,0.00,WeatherDisplay:10.37,2013-01-13 13:43:00,
2013-01-13 04:48:00,40.8,25.9,29.59,SSE,158,20.4,20.4,55,0.00,CLR,,0.00,WeatherDisplay:10.37,2013-01-13 13:48:00,
2013-01-13 04:53:00,40.8,25.9,29.59,SSW,202,12.7,12.7,55,0.00,CLR,,0.00,WeatherDisplay:10.37,2013-01-13 13:53:00,
2013-01-13 04:58:00,40.8,25.9,29.59,SSE,158,24.2,24.2,55,0.00,CLR,,0.00,WeatherDisplay:10.37,2013-01-13 13:58:00,
2013-01-13 05:03:00,40.6,26.2,29.59,SSW,202,15.0,15.0,56,0.00,CLR,,0.00,WeatherDisplay:10.37,2013-01-13 14:03:00,
2013-01-13 05:08:00,40.5,26.0,29.62,SSW,202,15.0,15.0,56,0.00,CLR,,0.00,WeatherDisplay:10.37,2013-01-13 14:08:00,
2013-01-13 05:13:00,40.6,26.2,29.62,SSE,158,16.1,16.1,56,0.00,CLR,,0.00,WeatherDisplay:10.37,2013-01-13 14:13:00,
2013-01-13 05:18:00,41.0,26.1,29.62,SSW,202,15.0,15.0,55,0.00,CLR,,0.00,WeatherDisplay:10.37,2013-01-13 14:18:00,
2013-01-13 05:23:00,41.0,26.1,29.59,SSE,158,15.0,15.0,55,0.00,CLR,,0.00,WeatherDisplay:10.37,2013-01-13 14:23:00,
2013-01-13 05:28:00,41.0,26.1,29.59,SSE,158,25.3,25.3,55,0.00,CLR,,0.00,WeatherDisplay:10.37,2013-01-13 14:28:00,
2013-01-13 05:33:00,40.6,26.2,29.59,SSW,202,32.2,32.2,56,0.00,CLR,,0.00,WeatherDisplay:10.37,2013-01-13 14:33:00,
2013-01-13 05:38:00,40.3,26.7,29.59,South,180,26.5,26.5,58,0.00,CLR,,0.00,WeatherDisplay:10.37,2013-01-13 14:38:00,
2013-01-13 05:43:00,40.5,26.4,29.59,South,180,24.2,24.2,57,0.00,,,0.00,WeatherDisplay:10.37,2013-01-13 14:43:00,
2013-01-13 05:49:00,40.1,26.9,29.59,SSE,158,26.5,26.5,59,0.00,CLR,,0.00,WeatherDisplay:10.37,2013-01-13 14:49:00,
2013-01-13 05:53:00,39.9,26.7,29.53,SSW,202,23.0,23.0,59,0.00,CLR,,0.00,WeatherDisplay:10.37,2013-01-13 14:53:00,
2013-01-13 05:59:00,39.9,27.1,29.53,South,180,37.3,37.3,60,0.00,CLR,,0.00,WeatherDisplay:10.37,2013-01-13 14:59:00,
2013-01-13 06:04:00,39.9,27.1,29.53,SSW,202,36.8,36.8,60,0.00,CLR,,0.00,WeatherDisplay:10.37,2013-01-13 15:04:00,
2013-01-13 06:09:00,39.9,27.1,29.53,SSE,158,46.0,46.0,60,0.00,CLR,,0.00,WeatherDisplay:10.37,2013-01-13 15:09:00,
2013-01-13 06:14:00,40.3,27.1,29.53,South,180,56.4,56.4,59,0.00,,,0.00,WeatherDisplay:10.37,2013-01-13 15:14:00,
2013-01-13 06:19:00,40.3,27.1,29.53,South,180,43.7,43.7,59,0.00,,,0.00,WeatherDisplay:10.37,2013-01-13 15:19:00,
2013-01-13 06:24:00,40.5,26.8,29.53,South,180,34.5,34.5,58,0.00,,,0.00,WeatherDisplay:10.37,2013-01-13 15:24:00,
2013-01-13 06:29:00,40.8,26.7,29.53,South,180,46.0,46.0,57,0.00,CLR,,0.00,WeatherDisplay:10.37,2013-01-13 15:29:00,
2013-01-13 06:34:00,40.8,26.7,29.53,SSW,202,41.4,41.4,57,0.00,,,0.00,WeatherDisplay:10.37,2013-01-13 15:34:00,
2013-01-13 06:39:00,41.0,26.5,29.50,SSW,202,42.6,42.6,56,0.00,,,0.00,WeatherDisplay:10.37,2013-01-13 15:39:00,
2013-01-13 06:44:00,41.0,26.5,29.50,SSW,202,39.1,39.1,56,0.00,,,0.00,WeatherDisplay:10.37,2013-01-13 15:44:00,
2013-01-13 06:49:00,41.0,26.1,29.50,South,180,40.3,40.3,55,0.00,CLR,,0.00,WeatherDisplay:10.37,2013-01-13 15:49:00,
2013-01-13 06:54:00,41.2,26.2,29.50,South,180,27.6,27.6,55,0.00,CLR,,0.00,WeatherDisplay:10.37,2013-01-13 15:54:00,
2013-01-13 06:59:00,41.2,26.2,29.50,SSW,202,33.4,33.4,55,0.00,CLR,,0.00,WeatherDisplay:10.37,2013-01-13 15:59:00,
2013-01-13 07:04:00,41.4,26.4,29.50,South,180,48.3,48.3,55,0.00,,,0.00,WeatherDisplay:10.37,2013-01-13 16:04:00,
2013-01-13 07:09:00,41.5,26.1,29.50,SSW,202,46.0,46.0,54,0.00,,,0.00,WeatherDisplay:10.37,2013-01-13 16:09:00,
2013-01-13 07:14:00,41.4,26.4,29.50,SSE,158,36.8,36.8,55,0.00,CLR,,0.00,WeatherDisplay:10.37,2013-01-13 16:14:00,
2013-01-13 07:19:00,41.5,26.1,29.50,SSW,202,28.8,28.8,54,0.00,CLR,,0.00,WeatherDisplay:10.37,2013-01-13 16:19:00,
2013-01-13 07:24:00,41.5,26.1,29.53,South,180,44.9,44.9,54,0.00,CLR,,0.00,WeatherDisplay:10.37,2013-01-13 16:24:00,
2013-01-13 07:29:00,41.5,26.6,29.53,South,180,31.1,31.1,55,0.00,,,0.00,WeatherDisplay:10.37,2013-01-13 16:29:00,
2013-01-13 07:34:00,41.4,26.4,29.53,SSE,158,38.0,38.0,55,0.00,,,0.00,WeatherDisplay:10.37,2013-01-13 16:34:00,
2013-01-13 07:39:00,41.4,26.4,29.53,South,180,36.8,36.8,55,0.00,CLR,,0.00,WeatherDisplay:10.37,2013-01-13 16:39:00,
2013-01-13 07:44:00,41.5,26.6,29.53,SW,225,35.3,35.3,55,0.00,CLR,,0.00,WeatherDisplay:10.37,2013-01-13 16:44:00,
2013-01-13 07:49:00,41.5,26.6,29.53,South,180,43.8,43.8,55,0.00,CLR,,0.00,WeatherDisplay:10.37,2013-01-13 16:49:00,
2013-01-13 07:54:00,41.5,26.6,29.53,South,180,36.8,36.8,55,0.00,CLR,,0.00,WeatherDisplay:10.37,2013-01-13 16:54:00,
2013-01-13 07:59:00,41.5,26.6,29.53,South,180,31.1,31.1,55,0.00,CLR,,0.00,WeatherDisplay:10.37,2013-01-13 16:59:00,
2013-01-13 08:04:00,41.5,26.1,29.53,South,180,18.4,18.4,54,0.00,CLR,,0.00,WeatherDisplay:10.37,2013-01-13 17:04:00,
2013-01-13 08:09:00,41.7,26.3,29.53,South,180,27.3,27.3,54,0.00,,,0.00,WeatherDisplay:10.37,2013-01-13 17:09:00,
2013-01-13 08:14:00,41.7,26.3,29.53,South,180,33.4,33.4,54,0.00,,,0.00,WeatherDisplay:10.37,2013-01-13 17:14:00,
2013-01-13 08:19:00,41.7,26.3,29.53,South,180,37.5,37.5,54,0.00,CLR,,0.00,WeatherDisplay:10.37,2013-01-13 17:19:00,
2013-01-13 08:24:00,41.7,26.3,29.56,SSE,158,38.0,38.0,54,0.00,CLR,,0.00,WeatherDisplay:10.37,2013-01-13 17:24:00,
2013-01-13 08:29:00,41.7,26.3,29.56,South,180,25.3,25.3,54,0.00,CLR,,0.00,WeatherDisplay:10.37,2013-01-13 17:29:00,
2013-01-13 08:34:00,41.5,26.6,29.56,South,180,26.5,26.5,55,0.00,CLR,,0.00,WeatherDisplay:10.37,2013-01-13 17:34:00,
2013-01-13 08:39:00,41.9,26.4,29.53,South,180,26.5,26.5,54,0.00,CLR,,0.00,WeatherDisplay:10.37,2013-01-13 17:39:00,
2013-01-13 08:44:00,41.7,26.3,29.53,SSE,158,28.8,28.8,54,0.00,CLR,,0.00,WeatherDisplay:10.37,2013-01-13 17:44:00,
2013-01-13 08:49:00,41.7,26.7,29.53,South,180,28.8,28.8,55,0.00,,,0.00,WeatherDisplay:10.37,2013-01-13 17:49:00,
2013-01-13 08:54:00,41.7,26.7,29.50,SSE,158,33.4,33.4,55,0.00,CLR,,0.00,WeatherDisplay:10.37,2013-01-13 17:54:00,
2013-01-13 08:59:00,41.5,26.6,29.50,South,180,32.2,32.2,55,0.00,CLR,,0.00,WeatherDisplay:10.37,2013-01-13 17:59:00,
2013-01-13 09:04:00,41.7,26.7,29.50,SSE,158,27.6,27.6,55,0.00,CLR,,0.00,WeatherDisplay:10.37,2013-01-13 18:04:00,
2013-01-13 09:09:00,41.7,26.7,29.53,South,180,39.1,39.1,55,0.00,CLR,,0.00,WeatherDisplay:10.37,2013-01-13 18:09:00,
2013-01-13 09:14:00,41.7,26.7,29.53,SSE,158,39.1,39.1,55,0.00,CLR,,0.00,WeatherDisplay:10.37,2013-01-13 18:14:00,
2013-01-13 09:19:00,41.7,26.7,29.53,SSE,158,36.8,36.8,55,0.00,,,0.00,WeatherDisplay:10.37,2013-01-13 18:19:00,
2013-01-13 09:24:00,41.7,26.7,29.50,SSE,158,46.5,46.5,55,0.00,CLR,,0.00,WeatherDisplay:10.37,2013-01-13 18:24:00,
2013-01-13 09:29:00,41.7,26.7,29.50,SSE,158,49.5,49.5,55,0.00,,,0.00,WeatherDisplay:10.37,2013-01-13 18:29:00,
2013-01-13 09:34:00,41.5,26.6,29.50,South,180,47.2,47.2,55,0.00,CLR,,0.00,WeatherDisplay:10.37,2013-01-13 18:34:00,
2013-01-13 09:39:00,41.5,26.6,29.53,SSW,202,47.2,47.2,55,0.00,CLR,,0.00,WeatherDisplay:10.37,2013-01-13 18:39:00,
2013-01-13 09:44:00,41.4,26.8,29.53,SSW,202,29.9,29.9,56,0.00,CLR,,0.00,WeatherDisplay:10.37,2013-01-13 18:44:00,
2013-01-13 09:49:00,41.4,26.8,29.53,SSW,202,31.1,31.1,56,0.00,CLR,,0.00,WeatherDisplay:10.37,2013-01-13 18:49:00,
2013-01-13 09:54:00,41.4,26.8,29.53,SSW,202,34.2,34.2,56,0.00,,,0.00,WeatherDisplay:10.37,2013-01-13 18:54:00,
2013-01-13 09:59:00,41.4,26.8,29.53,SSE,158,25.5,25.5,56,0.00,CLR,,0.00,WeatherDisplay:10.37,2013-01-13 18:59:00,
2013-01-13 10:04:00,41.5,27.0,29.53,South,180,35.5,35.5,56,0.00,,,0.00,WeatherDisplay:10.37,2013-01-13 19:04:00,
2013-01-13 10:09:00,41.4,26.8,29.53,SSW,202,35.7,35.7,56,0.00,CLR,,0.00,WeatherDisplay:10.37,2013-01-13 19:09:00,
2013-01-13 10:14:00,41.5,27.0,29.53,South,180,34.5,34.5,56,0.00,CLR,,0.00,WeatherDisplay:10.37,2013-01-13 19:14:00,
2013-01-13 10:19:00,41.4,26.8,29.53,SSW,202,31.1,31.1,56,0.00,CLR,,0.00,WeatherDisplay:10.37,2013-01-13 19:19:00,
2013-01-13 10:24:00,41.5,27.0,29.53,South,180,25.3,25.3,56,0.00,CLR,,0.00,WeatherDisplay:10.37,2013-01-13 19:24:00,
2013-01-13 10:29:00,41.4,26.8,29.53,SSW,202,31.1,31.1,56,0.00,CLR,,0.00,WeatherDisplay:10.37,2013-01-13 19:29:00,
2013-01-13 10:34:00,41.2,27.1,29.53,South,180,29.9,29.9,57,0.00,CLR,,0.00,WeatherDisplay:10.37,2013-01-13 19:34:00,
2013-01-13 10:39:00,41.4,27.3,29.56,WSW,248,41.4,41.4,57,0.00,,,0.00,WeatherDisplay:10.37,2013-01-13 19:39:00,
2013-01-13 10:44:00,41.5,27.0,29.56,SSE,158,33.9,33.9,56,0.00,CLR,,0.00,WeatherDisplay:10.37,2013-01-13 19:44:00,
2013-01-13 10:49:00,41.5,27.0,29.56,SSE,158,32.2,32.2,56,0.00,CLR,,0.00,WeatherDisplay:10.37,2013-01-13 19:49:00,
2013-01-13 10:54:00,41.5,27.4,29.53,South,180,40.3,40.3,57,0.00,CLR,,0.00,WeatherDisplay:10.37,2013-01-13 19:54:00,
2013-01-13 10:59:00,41.7,27.2,29.53,South,180,33.4,33.4,56,0.00,CLR,,0.00,WeatherDisplay:10.37,2013-01-13 19:59:00,
2013-01-13 11:04:00,41.5,27.4,29.53,South,180,27.6,27.6,57,0.00,CLR,,0.00,WeatherDisplay:10.37,2013-01-13 20:04:00,
2013-01-13 11:09:00,41.5,27.4,29.53,SSE,158,29.9,29.9,57,0.00,CLR,,0.00,WeatherDisplay:10.37,2013-01-13 20:09:00,
2013-01-13 11:14:00,41.7,27.2,29.53,South,180,36.8,36.8,56,0.00,CLR,,0.00,WeatherDisplay:10.37,2013-01-13 20:14:00,
2013-01-13 11:19:00,41.9,27.3,29.53,SW,225,34.4,34.4,56,0.00,CLR,,0.00,WeatherDisplay:10.37,2013-01-13 20:19:00,
2013-01-13 11:24:00,41.9,27.3,29.53,South,180,34.5,34.5,56,0.00,CLR,,0.00,WeatherDisplay:10.37,2013-01-13 20:24:00,
2013-01-13 11:29:00,42.1,27.5,29.53,SSE,158,39.1,39.1,56,0.00,CLR,,0.00,WeatherDisplay:10.37,2013-01-13 20:29:00,
2013-01-13 11:34:00,42.3,27.7,29.53,South,180,36.8,36.8,56,0.00,,,0.00,WeatherDisplay:10.37,2013-01-13 20:34:00,
2013-01-13 11:39:00,42.3,27.2,29.53,SSW,202,49.5,49.5,55,0.00,,,0.00,WeatherDisplay:10.37,2013-01-13 20:39:00,
2013-01-13 11:44:00,42.4,27.4,29.53,South,180,36.8,36.8,55,0.00,,,0.00,WeatherDisplay:10.37,2013-01-13 20:44:00,
2013-01-13 11:50:00,42.3,27.2,29.53,SSW,202,42.6,42.6,55,0.00,CLR,,0.00,WeatherDisplay:10.37,2013-01-13 20:50:00,
2013-01-13 11:55:00,42.4,27.4,29.56,South,180,42.4,42.4,55,0.00,,,0.00,WeatherDisplay:10.37,2013-01-13 20:55:00,
2013-01-13 12:00:00,42.4,27.4,29.56,South,180,41.4,41.4,55,0.00,,,0.00,WeatherDisplay:10.37,2013-01-13 21:00:00,
2013-01-13 12:05:00,42.4,27.4,29.56,South,180,26.5,26.5,55,0.00,CLR,,0.00,WeatherDisplay:10.37,2013-01-13 21:05:00,
2013-01-13 12:10:00,42.6,27.6,29.53,SSW,202,28.8,28.8,55,0.00,CLR,,0.00,WeatherDisplay:10.37,2013-01-13 21:10:00,
2013-01-13 12:15:00,42.6,27.6,29.53,SSW,202,33.4,33.4,55,0.00,CLR,,0.00,WeatherDisplay:10.37,2013-01-13 21:15:00,
2013-01-13 12:20:00,42.4,27.4,29.53,SSW,202,25.3,25.3,55,0.00,CLR,,0.00,WeatherDisplay:10.37,2013-01-13 21:20:00,
2013-01-13 12:25:00,42.8,27.3,29.53,SSE,158,32.2,32.2,54,0.00,,,0.00,WeatherDisplay:10.37,2013-01-13 21:25:00,
2013-01-13 12:30:00,42.6,27.6,29.53,SSE,158,41.4,41.4,55,0.00,CLR,,0.00,WeatherDisplay:10.37,2013-01-13 21:30:00,
2013-01-13 12:35:00,43.0,27.5,29.53,South,180,43.4,43.4,54,0.00,,,0.00,WeatherDisplay:10.37,2013-01-13 21:35:00,
2013-01-13 12:40:00,42.8,27.3,29.53,South,180,17.5,29.9,54,0.00,CLR,,0.00,WeatherDisplay:10.37,2013-01-13 21:40:00,
2013-01-13 12:45:00,43.0,27.5,29.53,South,180,19.0,25.3,54,0.00,CLR,,0.00,WeatherDisplay:10.37,2013-01-13 21:45:00,
2013-01-13 12:50:00,43.0,27.5,29.53,South,180,25.1,33.4,54,0.00,CLR,,0.00,WeatherDisplay:10.37,2013-01-13 21:50:00,
2013-01-13 12:55:00,43.0,27.5,29.53,SSE,158,13.0,18.4,54,0.00,CLR,,0.00,WeatherDisplay:10.37,2013-01-13 21:55:00,
2013-01-13 13:00:00,43.2,27.2,29.53,South,180,22.8,31.1,53,0.00,CLR,,0.00,WeatherDisplay:10.37,2013-01-13 22:00:00,
2013-01-13 13:05:00,43.0,27.0,29.53,South,180,13.0,25.3,53,0.00,CLR,,0.00,WeatherDisplay:10.37,2013-01-13 22:05:00,
2013-01-13 13:10:00,43.2,27.2,29.53,South,180,15.2,23.0,53,0.00,CLR,,0.00,WeatherDisplay:10.37,2013-01-13 22:10:00,
2013-01-13 13:15:00,43.2,27.2,29.53,South,180,17.5,23.0,53,0.00,CLR,,0.00,WeatherDisplay:10.37,2013-01-13 22:15:00,
2013-01-13 13:20:00,43.2,27.2,29.53,SSW,202,13.2,21.9,53,0.00,CLR,,0.00,WeatherDisplay:10.37,2013-01-13 22:20:00,
2013-01-13 13:25:00,43.2,27.2,29.50,SSW,202,17.5,38.0,53,0.00,CLR,,0.00,WeatherDisplay:10.37,2013-01-13 22:25:00,
2013-01-13 13:30:00,43.0,27.0,29.50,SSW,202,14.7,24.2,53,0.00,CLR,,0.00,WeatherDisplay:10.37,2013-01-13 22:30:00,
2013-01-13 13:35:00,43.0,27.0,29.50,SSW,202,16.3,23.0,53,0.00,CLR,,0.00,WeatherDisplay:10.37,2013-01-13 22:35:00,
2013-01-13 13:40:00,43.0,27.0,29.53,South,180,23.0,26.5,53,0.00,CLR,,0.00,WeatherDisplay:10.37,2013-01-13 22:40:00,
2013-01-13 13:45:00,43.0,27.0,29.53,SW,225,15.6,28.8,53,0.00,CLR,,0.00,WeatherDisplay:10.37,2013-01-13 22:45:00,
2013-01-13 13:50:00,43.0,27.0,29.53,SSE,158,16.1,24.2,53,0.00,CLR,,0.00,WeatherDisplay:10.37,2013-01-13 22:50:00,
2013-01-13 13:55:00,43.0,27.0,29.53,SSW,202,24.4,44.9,53,0.00,CLR,,0.00,WeatherDisplay:10.37,2013-01-13 22:55:00,
2013-01-13 14:00:00,43.2,27.2,29.53,South,180,20.6,38.6,53,0.00,CLR,,0.00,WeatherDisplay:10.37,2013-01-13 23:00:00,
2013-01-13 14:05:00,43.2,27.2,29.53,SSE,158,19.0,26.5,53,0.00,CLR,,0.00,WeatherDisplay:10.37,2013-01-13 23:05:00,
2013-01-13 14:10:00,43.2,27.2,29.53,South,180,23.2,38.0,53,0.00,CLR,,0.00,WeatherDisplay:10.37,2013-01-13 23:10:00,
2013-01-13 14:15:00,43.3,27.3,29.53,SSW,202,18.7,33.4,53,0.00,CLR,,0.00,WeatherDisplay:10.37,2013-01-13 23:15:00,
2013-01-13 14:20:00,43.5,27.5,29.53,South,180,18.5,28.8,53,0.00,CLR,,0.00,WeatherDisplay:10.37,2013-01-13 23:20:00,
2013-01-13 14:25:00,43.3,27.3,29.53,SSE,158,16.1,21.9,53,0.00,CLR,,0.00,WeatherDisplay:10.37,2013-01-13 23:25:00,
2013-01-13 14:30:00,43.5,27.0,29.53,SSW,202,17.6,26.5,52,0.00,CLR,,0.00,WeatherDisplay:10.37,2013-01-13 23:30:00,
2013-01-13 14:35:00,43.5,27.0,29.53,SSW,202,23.5,36.8,52,0.00,CLR,,0.00,WeatherDisplay:10.37,2013-01-13 23:35:00,
2013-01-13 14:40:00,43.3,27.3,29.53,SSE,158,18.5,24.2,53,0.00,CLR,,0.00,WeatherDisplay:10.37,2013-01-13 23:40:00,
2013-01-13 14:45:00,43.3,26.9,29.53,South,180,19.2,31.1,52,0.00,CLR,,0.00,WeatherDisplay:10.37,2013-01-13 23:45:00,
2013-01-13 14:50:00,43.2,27.2,29.53,South,180,23.9,33.4,53,0.00,CLR,,0.00,WeatherDisplay:10.37,2013-01-13 23:50:00,
2013-01-13 14:55:00,43.3,26.9,29.53,South,180,18.5,23.0,52,0.00,CLR,,0.00,WeatherDisplay:10.37,2013-01-13 23:55:00,
2013-01-13 15:00:00,43.0,27.0,29.53,South,180,16.6,21.9,53,0.00,CLR,,0.00,WeatherDisplay:10.37,2013-01-14 00:00:00,
2013-01-13 15:05:00,43.0,27.0,29.53,SSE,158,16.3,26.5,53,0.00,CLR,,0.00,WeatherDisplay:10.37,2013-01-14 00:05:00,
2013-01-13 15:10:00,43.0,27.0,29.53,SSE,158,20.8,31.1,53,0.00,CLR,,0.00,WeatherDisplay:10.37,2013-01-14 00:10:00,
2013-01-13 15:15:00,43.0,27.0,29.53,South,180,20.4,29.9,53,0.00,CLR,,0.00,WeatherDisplay:10.37,2013-01-14 00:15:00,
2013-01-13 15:20:00,42.8,26.8,29.53,SSW,202,20.4,24.2,53,0.00,CLR,,0.00,WeatherDisplay:10.37,2013-01-14 00:20:00,
2013-01-13 15:25:00,42.8,26.8,29.50,SSW,202,21.0,38.0,53,0.00,CLR,,0.00,WeatherDisplay:10.37,2013-01-14 00:25:00,
2013-01-13 15:30:00,43.0,27.0,29.50,South,180,19.7,25.3,53,0.00,CLR,,0.00,WeatherDisplay:10.37,2013-01-14 00:30:00,
2013-01-13 15:35:00,42.8,26.8,29.50,SSE,158,22.8,32.2,53,0.00,CLR,,0.00,WeatherDisplay:10.37,2013-01-14 00:35:00,
2013-01-13 15:40:00,43.0,27.0,29.50,SSE,158,17.3,26.5,53,0.00,CLR,,0.00,WeatherDisplay:10.37,2013-01-14 00:40:00,
2013-01-13 15:45:00,42.8,26.8,29.50,SSW,202,16.6,26.5,53,0.00,CLR,,0.00,WeatherDisplay:10.37,2013-01-14 00:45:00,
2013-01-13 15:50:00,42.6,27.1,29.50,SSW,202,22.3,26.5,54,0.00,CLR,,0.00,WeatherDisplay:10.37,2013-01-14 00:50:00,
2013-01-13 15:55:00,42.6,27.1,29.47,SSW,202,15.9,35.7,54,0.00,CLR,,0.00,WeatherDisplay:10.37,2013-01-14 00:55:00,
2013-01-13 16:00:00,42.4,27.0,29.47,SSW,202,21.9,25.3,54,0.00,CLR,,0.00,WeatherDisplay:10.37,2013-01-14 01:00:00,
2013-01-13 16:05:00,42.6,27.1,29.47,SSW,202,19.9,29.9,54,0.00,CLR,,0.00,WeatherDisplay:10.37,2013-01-14 01:05:00,
2013-01-13 16:10:00,42.6,27.1,29.47,WSW,248,19.0,26.5,54,0.00,CLR,,0.00,WeatherDisplay:10.37,2013-01-14 01:10:00,
2013-01-13 16:15:00,42.4,27.0,29.47,SSW,202,13.8,21.9,54,0.00,CLR,,0.00,WeatherDisplay:10.37,2013-01-14 01:15:00,
2013-01-13 16:20:00,42.4,27.0,29.47,South,180,20.6,27.6,54,0.00,CLR,,0.00,WeatherDisplay:10.37,2013-01-14 01:20:00,
2013-01-13 16:25:00,42.4,27.0,29.47,South,180,29.3,38.0,54,0.00,,,0.00,WeatherDisplay:10.37,2013-01-14 01:25:00,
2013-01-13 16:30:00,42.4,27.0,29.47,South,180,15.6,24.2,54,0.00,CLR,,0.00,WeatherDisplay:10.37,2013-01-14 01:30:00,
2013-01-13 16:35:00,42.3,27.2,29.47,SSE,158,13.7,19.0,55,0.00,CLR,,0.00,WeatherDisplay:10.37,2013-01-14 01:35:00,
2013-01-13 16:40:00,42.3,27.2,29.47,SE,135,16.3,20.7,55,0.00,CLR,,0.00,WeatherDisplay:10.37,2013-01-14 01:40:00,
2013-01-13 16:45:00,42.3,27.2,29.47,SSW,202,14.5,23.0,55,0.00,CLR,,0.00,WeatherDisplay:10.37,2013-01-14 01:45:00,
2013-01-13 16:50:00,42.1,27.5,29.47,SSW,202,14.0,26.5,56,0.00,CLR,,0.00,WeatherDisplay:10.37,2013-01-14 01:50:00,
2013-01-13 16:55:00,42.1,27.5,29.44,South,180,13.8,19.6,56,0.00,CLR,,0.00,WeatherDisplay:10.37,2013-01-14 01:55:00,
2013-01-13 17:00:00,42.1,27.5,29.44,South,180,17.0,28.8,56,0.00,CLR,,0.00,WeatherDisplay:10.37,2013-01-14 02:00:00,
2013-01-13 17:05:00,41.9,27.8,29.44,SSE,158,16.8,26.8,57,0.00,CLR,,0.00,WeatherDisplay:10.37,2013-01-14 02:05:00,
2013-01-13 17:10:00,42.1,27.9,29.47,SSW,202,21.5,32.2,57,0.00,CLR,,0.00,WeatherDisplay:10.37,2013-01-14 02:10:00,
2013-01-13 17:15:00,41.9,28.2,29.47,SSE,158,13.2,25.3,58,0.00,CLR,,0.00,WeatherDisplay:10.37,2013-01-14 02:15:00,
2013-01-13 17:20:00,41.7,28.4,29.47,SSE,158,17.5,26.5,59,0.00,CLR,,0.00,WeatherDisplay:10.37,2013-01-14 02:20:00,
2013-01-13 17:25:00,41.5,28.7,29.44,South,180,19.9,26.5,60,0.00,CLR,,0.00,WeatherDisplay:10.37,2013-01-14 02:25:00,
2013-01-13 17:30:00,41.2,29.1,29.44,South,180,11.4,18.4,62,0.00,CLR,,0.00,WeatherDisplay:10.37,2013-01-14 02:30:00,
2013-01-13 17:35:00,41.0,29.7,29.44,SSE,158,10.9,18.4,64,0.00,CLR,,0.00,WeatherDisplay:10.37,2013-01-14 02:35:00,
2013-01-13 17:40:00,40.8,30.3,29.47,South,180,12.3,19.7,66,0.00,CLR,,0.00,WeatherDisplay:10.37,2013-01-14 02:40:00,
2013-01-13 17:45:00,40.6,30.9,29.47,SSE,158,10.9,15.4,68,0.00,CLR,,0.00,WeatherDisplay:10.37,2013-01-14 02:45:00,
2013-01-13 17:51:00,40.3,31.3,29.47,SE,135,9.8,15.2,70,0.00,CLR,,0.00,WeatherDisplay:10.37,2013-01-14 02:51:00,
2013-01-13 17:56:00,39.9,31.6,29.47,SSE,158,13.5,13.8,72,0.00,CLR,,0.00,WeatherDisplay:10.37,2013-01-14 02:56:00,
2013-01-13 18:01:00,39.9,32.0,29.47,SSE,158,9.7,17.3,73,0.00,CLR,,0.00,WeatherDisplay:10.37,2013-01-14 03:01:00,
2013-01-13 18:06:00,39.9,31.3,29.47,South,180,15.4,21.9,71,0.00,CLR,,0.00,WeatherDisplay:10.37,2013-01-14 03:06:00,
2013-01-13 18:11:00,39.9,32.0,29.50,South,180,17.3,19.6,73,0.00,CLR,,0.00,WeatherDisplay:10.37,2013-01-14 03:11:00,
2013-01-13 18:16:00,40.1,32.1,29.50,WSW,248,11.2,12.7,73,0.00,CLR,,0.00,WeatherDisplay:10.37,2013-01-14 03:16:00,
2013-01-13 18:21:00,40.3,31.6,29.50,SSW,202,6.0,9.2,71,0.00,CLR,,0.00,WeatherDisplay:10.37,2013-01-14 03:21:00,
2013-01-13 18:26:00,40.3,32.0,29.47,SSE,158,11.8,15.0,72,0.00,CLR,,0.00,WeatherDisplay:10.37,2013-01-14 03:26:00,
2013-01-13 18:31:00,40.6,32.0,29.47,SSE,158,9.7,12.7,71,0.00,CLR,,0.00,WeatherDisplay:10.37,2013-01-14 03:31:00,
2013-01-13 18:36:00,40.5,31.1,29.47,SSE,158,4.5,8.1,69,0.00,CLR,,0.00,WeatherDisplay:10.37,2013-01-14 03:36:00,
2013-01-13 18:41:00,40.6,30.9,29.47,SSE,158,3.3,3.6,68,0.00,CLR,,0.00,WeatherDisplay:10.37,2013-01-14 03:41:00,
2013-01-13 18:46:00,40.5,30.7,29.47,South,180,5.9,6.9,68,0.00,CLR,,0.00,WeatherDisplay:10.37,2013-01-14 03:46:00,
2013-01-13 18:51:00,40.5,30.4,29.47,SSW,202,6.0,6.9,67,0.00,CLR,,0.00,WeatherDisplay:10.37,2013-01-14 03:51:00,
2013-01-13 18:56:00,40.5,30.4,29.47,SSW,202,7.8,10.4,67,0.00,CLR,,0.00,WeatherDisplay:10.37,2013-01-14 03:56:00,
2013-01-13 19:01:00,40.6,30.2,29.47,South,180,14.3,18.4,66,0.00,CLR,,0.00,WeatherDisplay:10.37,2013-01-14 04:01:00,
2013-01-13 19:06:00,40.6,29.8,29.47,South,180,14.0,21.9,65,0.00,CLR,,0.00,WeatherDisplay:10.37,2013-01-14 04:06:00,
2013-01-13 19:11:00,40.6,30.2,29.47,South,180,12.5,17.3,66,0.00,CLR,,0.00,WeatherDisplay:10.37,2013-01-14 04:11:00,
2013-01-13 19:16:00,40.6,30.5,29.47,South,180,14.0,17.3,67,0.00,CLR,,0.00,WeatherDisplay:10.37,2013-01-14 04:16:00,
2013-01-13 19:21:00,40.5,30.4,29.47,South,180,17.3,23.0,67,0.00,CLR,,0.00,WeatherDisplay:10.37,2013-01-14 04:21:00,
2013-01-13 19:26:00,40.3,30.6,29.47,SSE,158,16.1,23.0,68,0.00,CLR,,0.00,WeatherDisplay:10.37,2013-01-14 04:26:00,
2013-01-13 19:31:00,40.3,30.6,29.47,SSW,202,15.9,23.0,68,0.00,CLR,,0.00,WeatherDisplay:10.37,2013-01-14 04:31:00,
2013-01-13 19:36:00,40.1,30.7,29.47,South,180,14.5,18.4,69,0.00,CLR,,0.00,WeatherDisplay:10.37,2013-01-14 04:36:00,
2013-01-13 19:41:00,40.3,30.9,29.47,South,180,13.5,18.4,69,0.00,CLR,,0.00,WeatherDisplay:10.37,2013-01-14 04:41:00,
2013-01-13 19:46:00,40.3,30.9,29.47,SSE,158,14.0,17.3,69,0.00,CLR,,0.00,WeatherDisplay:10.37,2013-01-14 04:46:00,
2013-01-13 19:51:00,40.1,30.7,29.47,SSE,158,15.6,23.0,69,0.00,CLR,,0.00,WeatherDisplay:10.37,2013-01-14 04:51:00,
2013-01-13 19:56:00,39.9,30.9,29.47,SSE,158,13.7,17.5,70,0.00,CLR,,0.00,WeatherDisplay:10.37,2013-01-14 04:56:00,
2013-01-13 20:00:00,39.7,31.1,29.47,SSW,202,14.5,25.5,71,0.00,CLR,,0.00,WeatherDisplay:10.37,2013-01-14 05:00:00,
2013-01-13 20:03:00,39.7,31.4,29.47,SSW,202,17.3,34.5,72,0.00,CLR,,0.00,WeatherDisplay:10.37,2013-01-14 05:03:00,
2013-01-13 20:08:00,39.6,31.6,29.44,South,180,18.5,25.3,73,0.00,CLR,,0.00,WeatherDisplay:10.37,2013-01-14 05:08:00,
2013-01-13 20:13:00,39.4,31.4,29.44,SSE,158,17.5,28.8,73,0.00,CLR,,0.00,WeatherDisplay:10.37,2013-01-14 05:13:00,
2013-01-13 20:18:00,39.4,31.8,29.44,SSE,158,15.9,21.9,74,0.00,CLR,,0.00,WeatherDisplay:10.37,2013-01-14 05:18:00,
2013-01-13 20:23:00,39.2,31.9,29.44,South,180,14.7,19.6,75,0.00,CLR,,0.00,WeatherDisplay:10.37,2013-01-14 05:23:00,
2013-01-13 20:28:00,39.2,32.3,29.44,SE,135,21.5,24.2,76,0.00,CLR,,0.00,WeatherDisplay:10.37,2013-01-14 05:28:00,
2013-01-13 20:33:00,39.0,32.4,29.44,South,180,17.6,27.6,77,0.00,CLR,,0.00,WeatherDisplay:10.37,2013-01-14 05:33:00,
2013-01-13 20:38:00,39.0,32.4,29.44,SSE,158,10.5,20.7,77,0.00,CLR,,0.00,WeatherDisplay:10.37,2013-01-14 05:38:00,
2013-01-13 20:43:00,39.0,32.4,29.44,SSW,202,16.6,23.0,77,0.00,CLR,,0.00,WeatherDisplay:10.37,2013-01-14 05:43:00,
2013-01-13 20:48:00,38.8,32.6,29.44,South,180,14.3,23.0,78,0.00,CLR,,0.00,WeatherDisplay:10.37,2013-01-14 05:48:00,
2013-01-13 20:53:00,38.8,32.6,29.41,South,180,16.8,23.0,78,0.00,CLR,,0.00,WeatherDisplay:10.37,2013-01-14 05:53:00,
2013-01-13 20:58:00,38.7,32.4,29.41,SSE,158,14.3,18.4,78,0.00,CLR,,0.00,WeatherDisplay:10.37,2013-01-14 05:58:00,
2013-01-13 21:03:00,38.7,32.7,29.41,SE,135,6.9,11.5,79,0.00,CLR,,0.00,WeatherDisplay:10.37,2013-01-14 06:03:00,
2013-01-13 21:08:00,38.7,32.7,29.44,SE,135,13.2,16.1,79,0.00,CLR,,0.00,WeatherDisplay:10.37,2013-01-14 06:08:00,
2013-01-13 21:13:00,38.7,32.7,29.44,SSE,158,15.6,27.6,79,0.00,CLR,,0.00,WeatherDisplay:10.37,2013-01-14 06:13:00,
2013-01-13 21:18:00,38.5,32.8,29.44,SSW,202,11.8,24.2,80,0.00,CLR,,0.00,WeatherDisplay:10.37,2013-01-14 06:18:00,
2013-01-13 21:23:00,38.7,32.7,29.44,SSE,158,15.6,26.5,79,0.00,CLR,,0.00,WeatherDisplay:10.37,2013-01-14 06:23:00,
2013-01-13 21:28:00,38.7,32.7,29.44,SSE,158,10.7,25.3,79,0.00,CLR,,0.00,WeatherDisplay:10.37,2013-01-14 06:28:00,
2013-01-13 21:33:00,38.7,32.7,29.44,SSE,158,15.4,26.5,79,0.00,CLR,,0.00,WeatherDisplay:10.37,2013-01-14 06:33:00,
2013-01-13 21:38:00,38.8,32.6,29.41,SSE,158,15.4,23.0,78,0.00,CLR,,0.00,WeatherDisplay:10.37,2013-01-14 06:38:00,
2013-01-13 21:43:00,38.8,32.6,29.41,South,180,12.3,15.0,78,0.00,CLR,,0.00,WeatherDisplay:10.37,2013-01-14 06:43:00,
2013-01-13 21:48:00,38.8,32.6,29.41,South,180,15.2,20.7,78,0.00,CLR,,0.00,WeatherDisplay:10.37,2013-01-14 06:48:00,
2013-01-13 21:53:00,39.2,32.3,29.38,South,180,17.3,24.2,76,0.00,CLR,,0.00,WeatherDisplay:10.37,2013-01-14 06:53:00,
2013-01-13 21:58:00,39.2,32.3,29.38,SSE,158,15.2,23.9,76,0.00,CLR,,0.00,WeatherDisplay:10.37,2013-01-14 06:58:00,
2013-01-13 22:03:00,39.4,32.4,29.38,SE,135,13.8,25.3,76,0.00,CLR,,0.00,WeatherDisplay:10.37,2013-01-14 07:03:00,
2013-01-13 22:08:00,39.4,32.1,29.41,SSE,158,6.9,15.0,75,0.00,CLR,,0.00,WeatherDisplay:10.37,2013-01-14 07:08:00,
2013-01-13 22:13:00,39.4,32.1,29.41,SSE,158,12.3,19.6,75,0.00,CLR,,0.00,WeatherDisplay:10.37,2013-01-14 07:13:00,
2013-01-13 22:18:00,39.7,32.1,29.41,SSE,158,21.0,27.6,74,0.00,CLR,,0.00,WeatherDisplay:10.37,2013-01-14 07:18:00,
2013-01-13 22:23:00,39.7,32.1,29.41,ESE,112,9.4,19.6,74,0.00,CLR,,0.00,WeatherDisplay:10.37,2013-01-14 07:23:00,
2013-01-13 22:28:00,39.7,32.1,29.41,SE,135,16.8,24.2,74,0.00,CLR,,0.00,WeatherDisplay:10.37,2013-01-14 07:28:00,
2013-01-13 22:33:00,39.7,32.1,29.41,SE,135,10.9,15.0,74,0.00,CLR,,0.00,WeatherDisplay:10.37,2013-01-14 07:33:00,
2013-01-13 22:38:00,39.7,32.1,29.38,SE,135,9.4,18.4,74,0.00,CLR,,0.00,WeatherDisplay:10.37,2013-01-14 07:38:00,
2013-01-13 22:43:00,39.7,32.1,29.38,SSE,158,19.9,29.9,74,0.00,CLR,,0.00,WeatherDisplay:10.37,2013-01-14 07:43:00,
2013-01-13 22:48:00,40.1,31.8,29.38,ENE,68,14.3,29.9,72,0.00,CLR,,0.00,WeatherDisplay:10.37,2013-01-14 07:48:00,
2013-01-13 22:53:00,40.1,31.8,29.38,SSE,158,18.7,33.4,72,0.00,CLR,,0.00,WeatherDisplay:10.37,2013-01-14 07:53:00,
2013-01-13 22:59:00,40.3,31.6,29.38,SE,135,13.8,21.9,71,0.00,CLR,,0.00,WeatherDisplay:10.37,2013-01-14 07:59:00,
2013-01-13 23:03:00,40.3,31.3,29.38,SE,135,12.1,17.3,70,0.00,CLR,,0.00,WeatherDisplay:10.37,2013-01-14 08:03:00,
2013-01-13 23:09:00,40.5,31.4,29.38,ENE,68,9.2,11.5,70,0.00,CLR,,0.00,WeatherDisplay:10.37,2013-01-14 08:09:00,
2013-01-13 23:14:00,40.6,31.3,29.38,SSE,158,20.1,31.1,69,0.00,CLR,,0.00,WeatherDisplay:10.37,2013-01-14 08:14:00,
2013-01-13 23:19:00,41.0,30.9,29.38,SSE,158,9.8,15.0,67,0.00,CLR,,0.00,WeatherDisplay:10.37,2013-01-14 08:19:00,
2013-01-13 23:24:00,41.0,30.9,29.35,SSE,158,8.7,16.1,67,0.00,CLR,,0.00,WeatherDisplay:10.37,2013-01-14 08:24:00,
2013-01-13 23:29:00,41.0,30.5,29.35,South,180,18.1,26.5,66,0.00,CLR,,0.00,WeatherDisplay:10.37,2013-01-14 08:29:00,
2013-01-13 23:34:00,41.2,30.7,29.35,SSE,158,17.5,32.2,66,0.00,CLR,,0.00,WeatherDisplay:10.37,2013-01-14 08:34:00,
2013-01-13 23:39:00,41.0,30.5,29.35,SSE,158,9.8,13.8,66,0.00,CLR,,0.00,WeatherDisplay:10.37,2013-01-14 08:39:00,
2013-01-13 23:44:00,41.0,30.5,29.35,SE,135,11.4,13.8,66,0.00,CLR,,0.00,WeatherDisplay:10.37,2013-01-14 08:44:00,
2013-01-13 23:49:00,41.0,30.5,29.35,SSE,158,15.4,27.3,66,0.00,CLR,,0.00,WeatherDisplay:10.37,2013-01-14 08:49:00,
2013-01-13 23:54:00,41.0,30.5,29.35,SSE,158,15.4,24.2,66,0.00,CLR,,0.00,WeatherDisplay:10.37,2013-01-14 08:54:00,
2013-01-13 23:59:00,41.2,30.7,29.35,SSW,202,17.6,29.9,66,0.00,CLR,,0.00,WeatherDisplay:10.37,2013-01-14 08:59:00,